Location: Baix
(44.7118°N, 4.7648°E)
Time: 12:37:03
(UTC+00:00)

Vanguard 2 Rocket - Pass Details

Date: 04 December 2020
Orbit: 554 x 3325 km, 32.9° (Epoch: 23 January)

Event Time Altitude Azimuth Distance (km) Brightness Sun altitude
Rises 03:30:01 0° 194° (SSW) 5,956 10.9 -36.8°
Reaches altitude 10° 03:34:50 10° 181° (S) 5,352 10.7 -35.9°
Maximum altitude 03:46:50 24° 136° (SE) 4,951 10.9 -33.8°
Drops below altitude 10° 04:00:38 10° 93° (E) 6,280 12.0 -31.3°
Sets 04:06:53 0° 82° (E) 7,202 12.6 -30.2°
